Terminal Aerodrome Forecast
Issued by NWS Wilmington, NC

Home | Current Version | Previous Version | Text Only | Print | Product List | Glossary On
Versions: 1 2 3 4 5 6 7 8 9 10 11 12 13 14 15
516
FTUS42 KILM 130528
TAFFLO
TAF
KFLO 130528Z 1306/1406 32006KT P6SM FEW250
     FM131200 33008KT P6SM SKC
     FM131400 35014G22KT P6SM SKC
     FM132200 35010KT P6SM SKC
     FM140200 02008KT P6SM SKC=

USA.gov is the U.S. government's official web portal to all federal, state and local government web resources and services.